Regional Weather Roundup
Issued by NWS

Home | Current Version | Previous Version | Text Only | Print | Product List | Glossary Off
Versions: 1 2 3 4 5 6 7 8 9 10 11 12 13 14 15 16 17 18 19 20 21 22 23 24 25 26 27 28 29 30 31 32 33 34 35 36 37 38 39 40 41 42 43 44 45 46 47 48 49 50

350
ASUS44 KLIX 010201
RWRLA
LOUISIANA WEATHER ROUNDUP
NATIONAL WEATHER SERVICE NEW ORLEANS LA
800 PM CST SAT JAN 31 2015

NOTE: "FAIR" INDICATES FEW OR NO CLOUDS BELOW 12,000 FEET WITH NO
      SIGNIFICANT WEATHER AND/OR OBSTRUCTIONS TO VISIBILITY.
      SKY/WX - SKY CONDITION AND SIGNIFICANT WEATHER.
      TMP - AIR TEMPERATURE.    DP   - DEWPOINT TEMPERATURE.
      RH  - RELATIVE HUMIDITY.  PRES - PRESSURE.
      HX  - HEAT INDEX.         WCI  - WIND CHILL INDEX.

*  THESE STATIONS ARE NOT NWS OR FAA STATIONS AND ARE NOT UNDER
   NWS QUALITY CONTROL.

LAZ040-048-061>063-065-066-069-010300-
SOUTHEAST LOUISIANA

CITY           SKY/WX    TMP DP  RH WIND       PRES   REMARKS
N.O. AUDUBON     N/A     56  54  95 MISG        N/A
N.O. INTL ARPT MOCLDY    56  49  77 E9        30.16F
N.O. LAKEFRONT PTCLDY    57  50  77 E13       30.17F
N.O. DOWNTOWN* NOT AVBL
SLIDELL        PTCLDY    53  47  79 E5        30.18F
BATON ROUGE    MOCLDY    54  47  77 E12       30.15F
BOOTHVILLE     PTCLDY    58  52  80 E6        30.18S
BELLE CHASSE   MOCLDY    57  49  74 E9        30.15F
BOGALUSA*        N/A     54  46  73 E3        30.21S
GALLIANO*      NOT AVBL
NEW ROADS*     NOT AVBL
GONZALES*      NOT AVBL
HAMMOND*       NOT AVBL
HOUMA*         MOCLDY    55  52  88 NE7       30.15S
PORT FOURCHON* MOCLDY    63  57  82 E14       30.16F

$$

LAZ041-044-053-054-010300-
SOUTHWEST LOUISIANA

CITY           SKY/WX    TMP DP  RH WIND       PRES   REMARKS
LAKE CHARLES   MOCLDY    59  52  77 SE13      30.08F
LAFAYETTE      CLOUDY    58  48  69 VRB6      30.12F
PATTERSON      CLOUDY    57  50  77 E10       30.14S
SALT POINT       N/A     59  52  77 E8        30.10F
NEW IBERIA     CLOUDY    59  49  69 E10       30.12F
CHENAULT AIRPK NOT AVBL

$$

LAZ027-028-010300-
CENTRAL LOUISIANA

CITY           SKY/WX    TMP DP  RH WIND       PRES   REMARKS
FORT POLK      CLOUDY    57  47  71 E8        30.08F
ALEXANDRIA INT CLOUDY    55  43  63 E9        30.10F
ALEXANDRIA     MOCLDY    49  42  77 E3        30.12F

$$

LAZ001-002-010300-
NORTHWEST LOUISIANA

CITY           SKY/WX    TMP DP  RH WIND       PRES   REMARKS
SHREVEPORT     CLOUDY    56  38  50 SE8       30.08R
BARKSDALE AFB  CLOUDY    54  37  52 SE7       30.08R
DTN SHREVEPORT CLOUDY    54  36  50 SE6       30.08S

$$

LAZ014-016-010300-
NORTHEAST LOUISIANA

CITY           SKY/WX    TMP DP  RH WIND       PRES   REMARKS
MONROE         CLOUDY    49  38  65 CALM      30.14F
TALLULAH       CLOUDY    54  33  45 SE8       30.16S

$$




USA.gov is the U.S. government's official web portal to all federal, state and local government web resources and services.